| Shipment Reliability and Frequency | Volume of Goods |
|---|---|
| Avg. Shipments per Month: 3.15 | Average TEU per month: 5.12 |
| Active Months: 11 | Average TEU per Shipment: 1.50 |
| Shipment Frequency Std. Dev.: 1.63 |
| Company Name | Shipments |
|---|---|
| NATIVE FLORAL | 38 shipments |
| FLEURIGROS 1995 INC | 7 shipments |
| NATIVE WHOLESALE INC | 7 shipments |
| RIVERDALE FARMS LLC | 1 shipments |
| RUMHORA GREENS LLC | 1 shipments |
| HS Code | Shipments |
|---|---|
| 060310 Flowers; cut flowers and flower buds of a kind suitable for bouquets or for ornamental purposes, fresh, dried, dyed, bleached, impregnated or otherwise prepared | 18 shipments |
| 60491.0 | 14 shipments |
| 060491 Foliage, branches and other parts of plants, without flowers or flower buds, and grasses, mosses and lichens; suitable for bouquets or for ornamental purposes, fresh, dried, dyed, bleached, impregnated etc. | 7 shipments |
| 60310.0 | 7 shipments |
| 060420 Foliage, branches and other parts of plants, without flowers or flower buds, and grasses, mosses and lichens; suitable for bouquets or for ornamental purposes, fresh | 5 shipments |
| 060314 Flowers, cut; chrysanthemums, flowers and buds of a kind suitable for bouquets or ornamental purposes, fresh | 2 shipments |
| 820411.0 Tools, hand; hand-operated spanners and wrenches (including torque meter wrenches but not including tap wrenches), interchangeable spanner sockets, with or without handles | 1 shipments |
| Arrival Date | Bill Of Lading | Consignee | Weight | HS Code | Description |
|---|---|---|---|---|---|
| 2026-03-30 | DSVFBO50190317 | NATIVE WHOLESALE INC | 344.0 kg | 60491.0 | FRESH FLOWERS |
| 2026-03-23 | DSVFBO50190178 | NATIVE FLORAL | 654.0 kg | 60491.0 | FRESH FLOWERS |
| 2026-03-20 | DSVFBO50190049 | NATIVE FLORAL | 804.0 kg | 60491.0 | FRESH FLOWERS |
| 2026-03-09 | DSVFBO50189895 | NATIVE WHOLESALE INC | 310.0 kg | 60491.0 | FRESH FLOWERS |
| 2026-03-02 | DSVFBO50189755 | NATIVE WHOLESALE INC | 198.0 kg | 60491.0 | FRESH FLOWERS |
| 2026-02-23 | DSVFBO50189550 | NATIVE WHOLESALE INC | 198.0 kg | 60491.0 | FRESH FLOWERS |
| 2026-02-09 | DSVFBO50189282 | NATIVE WHOLESALE INC | 77.0 kg | 60491.0 | FRESH FLOWERS |
| 2026-02-02 | DSVFBO50189156 | NATIVE FLORAL | 391.0 kg | 60491.0 | FRESH FLOWERS |
| 2026-01-26 | DSVFBO50188928 | NATIVE FLORAL | 331.0 kg | 60491.0 | FRESH FLOWERS |
| 2026-01-26 | SMLU8899274A002 | FLEURIGROS 1995 INC | 1364.88 kg | 820411.0 | BOX EACH ONE CONTAINING CUT FLOWERS BOX BQT ARALIA . . . BOX BQT COCCULUS . . . BOX BQT LILLY GRASS . . . BOX BQT RUSCUS . . . HC CODE . . . . CARGO STOWED IN A REFRIGERATED CONTAINER SET AT THE SHIPPER S REQUESTED CARRYING REQ. TEMPERATURE OF TEMP + , CENTIGRADE , FAHRENHEIT VENTILATION CBM H OPEN |
| 2026-01-19 | DSVFBO50188744 | NATIVE FLORAL | 77.0 kg | 60491.0 | FRESH FLOWERS |
| 2026-01-05 | DSVFBO50188478 | NATIVE FLORAL | 116.0 kg | 60491.0 | FRESH FLOWERS |
| 2025-12-30 | DSVFBO50188393 | NATIVE FLORAL | 165.0 kg | 60491.0 | FRESH FLOWERS |
| 2025-12-16 | DSVFBO50188112 | NATIVE FLORAL | 189.0 kg | 60491.0 | FRESH FLOWERS |
| 2025-10-28 | DSVFBO50186966 | NATIVE FLORAL | 198.0 kg | 60310.0 | FRESH CUT FLOWERS |
| 2025-10-21 | DSVFBO50186863 | NATIVE FLORAL | 310.0 kg | 60310.0 | FRESH CUT FLOWERS |
| 2025-10-14 | DSVFBO50186616 | NATIVE FLORAL | 103.0 kg | 60491.0 | FRESH FLOWERS |
| 2025-10-07 | DSVFBO50186443 | NATIVE FLORAL | 259.0 kg | 60310.0 | FRESH CUT FLOWERS |
| 2025-09-30 | DSVFBO50186258 | NATIVE FLORAL | 249.0 kg | 60310.0 | FRESH CUT FLOWERS |
| 2025-09-23 | DSVFBO50186075 | NATIVE FLORAL | 155.0 kg | 60310.0 | FRESH CUT FLOWERS |
| 2025-09-16 | DSVFBO50185878 | NATIVE FLORAL | 155.0 kg | 60310.0 | FRESH CUT FLOWERS |
| 2025-09-09 | DSVFBO50185711 | NATIVE FLORAL | 568.0 kg | 60310.0 | FRESH CUT FLOWERS |
| 2025-08-26 | DSVFBO50185339 | NATIVE FLORAL | 568.0 kg | 060491 | FRESH FLOWERS |
| 2025-08-19 | DSVFBO50185139 | NATIVE FLORAL | 275.0 kg | 060491 | FRESH FLOWERS |
| 2025-08-13 | DSVFBO50184952 | NATIVE FLORAL | 482.0 kg | 060491 | FRESH FLOWERS |
| 2025-08-06 | DSVFBO50184740 | NATIVE FLORAL | 284.0 kg | 060310 | FRESH CUT FLOWERS |
| 2025-07-29 | DSVFBO50184520 | NATIVE FLORAL | 559.0 kg | 060310 | FRESH CUT FLOWERS |
| 2025-07-15 | DSVFBO50184067 | NATIVE WHOLESALE INC | 216.0 kg | 060310 | FRESH CUT FLOWERS |
| 2025-07-01 | DSVFBO50183277 | NATIVE FLORAL | 525.0 kg | 060310 | FRESH CUT FLOWERS |
| 2025-06-24 | DSVFBO50183112 | NATIVE FLORAL | 271.0 kg | 060310 | FRESH CUT FLOWERS |
| 2025-06-17 | DSVFBO50182662 | NATIVE FLORAL | 318.0 kg | 060310 | FRESH CUT FLOWERS |
| 2025-06-03 | DSVFBO50181834 | NATIVE FLORAL | 327.0 kg | 060310 | FRESH CUT FLOWERS |
| 2025-06-03 | DSVFBO50182301 | NATIVE FLORAL | 181.0 kg | 060310 | FRESH CUT FLOWERS |
| 2025-05-21 | DSVFBO50181459 | NATIVE FLORAL | 155.0 kg | 060310 | FRESH CUT FLOWER |
| 2025-05-20 | DSVFBO50180948 | NATIVE FLORAL | 404.0 kg | 060310 | FRESH CUT FLOWER |
| 2025-05-13 | DSVFBO50180483 | NATIVE FLORAL | 318.0 kg | 060310 | FRESH CUT FLOWERS |
| 2025-04-29 | DSVFBO50178925 | NATIVE FLORAL | 86.0 kg | 060310 | FRESH CUT FLOWERS |
| 2025-04-15 | SMLU8535803A003 | FLEURIGROS 1995 INC | 1593.04 kg | 060420 | BOX EACH ONE CONTAINING CUT FLOWERS 244 BOX BOUQUET RUSCUS - 0604.20.00.00 HC CODE 0604.20.00.00 CARGO STOWED IN A REFRIGERATED CONTAINER SET AT THE SHIPPER S REQUESTED CARRYING REQ. TEMPERATURE OF TEMP +0,8 CENTIGRADE 33,4 FAHRENHEIT VENTILATION 20 CBM H |
| 2025-04-15 | DSVFBO50178184 | NATIVE FLORAL | 163.0 kg | 060310 | FRESH CUT FLOWERS |
| 2025-04-09 | DSVFBO50176952 | NATIVE FLORAL | 310.0 kg | 060310 | FRESH CUT FLOWERS |
| 2025-04-08 | DSVFBO50177355 | NATIVE FLORAL | 241.0 kg | 060310 | FRESH CUT FLOWERS |
| 2025-03-26 | DSVFBO50176453 | NATIVE FLORAL | 302.0 kg | 060310 | FRESH CUT FLOWERS |
| 2025-03-25 | DSVFBO50176014 | NATIVE FLORAL | 258.0 kg | 060310 | FRESH CUT FLOWERS |
| 2025-03-18 | DSVFBO50175641 | NATIVE FLORAL | 431.0 kg | 060491 | FRESH FLOWERS |
| 2025-02-10 | DSVFBO50172587 | NATIVE WHOLESALE INC | 219.0 kg | 060491 | FRESH FLOWERS |
| 2025-01-30 | DSVFBO50171920 | NATIVE FLORAL | 202.0 kg | 060491 | FRESH FLOWERS |
| 2025-01-21 | DSVFBO50170589 | NATIVE FLORAL | 215.0 kg | 060310 | FRESH CUT FLOWERS |
| 2025-01-21 | SMLU8409304A005 | FLEURIGROS 1995 INC | 1319.07 kg | 060314 | BOX EACH ONE CONTAINING CUT FLOWERS 213 BOX BOUQUET RUSCUS - 0604.20.00.00 . NCM HC CODE 0603.14.00.20 CARGO STOWED IN A REFRIGERATED CONTAINER SET AT THE SHIPPER S REQUESTED CARRYING REQ. TEMPERATURE OF TEMP +0,8 CENTIGRADE 33,4 FAHRENHEIT VENTILATION 20 CBM H OPEN |
| 2024-01-22 | SMLU7907119A002 | FLEURIGROS 1995 INC | 1207.94 kg | 060420 | BOXES EACH ONE CONTAINING CUT FLOWERS BOX BQT COCCULUS ARALIA RUSCUS EUCALIPTO BABY BLUE LILY GRASS 06.04.20.00.00 . HC CODE 06.04.20.00.00 CARGO STOWED IN A REFRIGERATED CONTAINER SET AT THE SHIPPER S REQUESTED CARRYING REQ. TEMPERATURE OF TEMP +0,8 CENTIGRADE 33,4 FAHRENHEIT VENTILATION 20 CBM H OPEN WHITOUT HUMIDITY |
| 2023-04-17 | SMLU7586668A002 | FLEURIGROS 1995 INC | 527.99 kg | 060420 | BOXES EACH ONE CONTAINING CUT FLOWERS BOX BOUQUET RUSCUS - 06.04.20.00.00 . CODE 06.04.20.00.00 CARGO STOWED IN A REFRIGERATED CONTAINER SET AT THE SHIPPER S REQUESTED CARRYING REQ. TEMPERATURE OF TEMP +0,8 CENTIGRADE 33,4 FAHRENHEIT VENTILATION 20 CBM H OPEN WHITOUT HUMIDITY |